Probability
0 0 0 0 0 0 0 0 0 0 0 0 0 0 0 0 0 0 0 0 0 0 0 0 0 0 0 0 0 0 0 0 0 0 0 0 0 0 0 0 0 0 0 0 0 0 0 0 0
0 0 0 0 0 0 0 0 0 0 0 0 0 0 0 0 0 0 0 0 0 0 0 0 0 0 0 0 0 0 0 0 0 0 0 0 0 0 0 0 0 0 0 0 0 0 0 0 0
0 0 0 0 0 0 0 0 0 0 0 0 0 0 0 0 0 0 0 0 0 0 0 0 0 0 0 0 0 0 0 0 0 0 0 0 0 0 0 0 0 0 0 0 0 0 0 0 0
0 0 0 0 0 0 0 0 0 0 0 0 0 0 0 0 0 0 0 0 0 0 0 0 0 0 0 0 0 0 0 0 0 0 0 0 0 0 0 0 0 0 0 0 0 0 0 0 0
0 0 0 0 0 0 0 0 0 0 0 0 0 0 0 0 0 0 0 0 0 0 0 0 0 0 0 0 0 0 0 0 0 0 0 0 0 0 0 0 0 0 0 0 0 0 0 0 0
0 0 0 0 0 0 0 0 0 0 0 0 0 0 0 0 0 0 0 0 0 0 0 0 0 0 0 0 0 0 0 0 0 0 0 0 0 0 0 0 0 0 0 0 0 0 0 0 0
0 0 0 0 0 0 0 0 0 0 0 0 0 0 0 0 0 0 0 0 0 0 0 0 0 0 0 0 0 0 0 0 0 0 0 0 0 0 0 0 0 0 0 0 0 0 0 0 0
0 0 0 0 0 0 0 0 0 0 0 0 0 0 0 0 0 0 0 0 0 0 0 0 0 0 0 0 0 0 0 0 0 0 0 0 0 0 0 0 0 0 0 0 0 0 0 0 0
0 0 0 0 0 0 0 0 0 0 0 0 0 0 0 0 0 0 0 0 0 0 0 0 0 0 0 0 0 0 0 0 0 0 0 0 0 0 0 0 0 0 0 0 0 0 0 0 0
0 0 0 0 0 0 0 0 0 0 0 0 0 0 0 0 0 0 0 0 0 0 0 0 0 0 0 0 0 0 0 0 0 0 0 0 0 0 0 0 0 0 0 0 0 0 0 0 0
0 0 0 0 0 0 0 0 0 0 0 0 0 0 0 0 0 0 0 0 0 0 0 0 0 0 0 0 0 0 0 0 0 0 0 0 0 0 0 0 0 0 0 0 0 0 0 0 0
0 0 0 0 0 0 0 0 0 0 0 0 0 0 0 0 0 0 0 0 0 0 0 0 0 0 0 0 0 0 0 0 0 0 0 0 0 0 0 0 0 0 0 0 0 0 0 0 0
0 0 0 0 0 0 0 0 0 0 0 0 0 0 0 0 0 0 0 0 0 0 0 0 0 0 0 0 0 0 0 0 0 0 0 0 0 0 0 0 0 0 0 0 0 0 0 0 0
0 0 0 0 0 0 0 0 0 0 0 0 0 0 0 0 0 0 0 0 0 0 0 0 0 0 0 0 0 0 0 0 0 0 0 0 0 0 0 0 0 0 0 0 0 0 0 0 0
0 0 0 0 0 0 0 0 0 0 0 0 0 0 0 0 0 0 0 0 0 0 0 0 0 0 0 0 0 0 0 0 0 0 0 0 0 0 0 0 0 0 0 0 0 0 0 0 0
0 0 0 0 0 0 0 0 0 0 0 0 0 0 0 0 0 0 0 0 0 0 0 0 0 0 0 0 0 0 0 0 0 0 0 0 0 0 0 0 0 0 0 0 0 0 0 0 0
0 0 0 0 0 0 0 0 0 0 0 0 0 0 0 0 0 0 0 0 0 0 0 0 0 0 0 0 0 0 0 0 0 0 0 0 0 0 0 0 0 0 0 0 0 0 0 0 0
0 0 0 0 0 0 0 0 0 0 0 0 0 0 0 0 0 0 0 0 0 0 0 0 0 0 0 0 0 0 0 0 0 0 0 0 0 0 0 0 0 0 0 0 0 0 0 0 0
0 0 0 0 0 0 0 0 0 0 0 0 0 0 0 0 0 0 0 0 0 0 0 0 0 0 0 0 0 0 0 0 0 0 0 0 0 0 0 0 0 0 0 0 0 0 0 0 0
0 0 0 0 0 0 0 0 0 0 0 0 0 0 0 0 0 0 0 0 0 0 0 0 0 0 0 0 0 0 0 0 0 0 0 0 0 0 0 0 0 0 0 0 0 0 0 0 0
0 0 0 0 0 0 0 0 0 0 0 0 0 0 0 0 0 0 0 0 0 0 0 0 0 0 0 0 0 0 0 0 0 0 0 0 0 0 0 0 0 0 0 0 0 0 0 0 0
0 0 0 0 0 0 0 0 0 0 0 0 0 0 0 0 0 0 0 0 0 0 0 0 0 0 0 0 0 0 0 0 0 0 0 0 0 0 0 0 0 0 0 0 0 0 0 0 0
0 0 0 0 0 0 0 0 0 0 0 0 0 0 0 0 0 0 0 0 0 0 0 0 0 0 0 0 0 0 0 0 0 0 0 0 0 0 0 0 0 0 0 0 0 0 0 0 0
0 0 0 0 0 0 0 0 0 0 0 0 0 0 0 0 0 0 0 0 0 0 0 0 0 0 0 0 0 0 0 0 0 0 0 0 0 0 0 0 0 0 0 0 0 0 0 0 0
0 0 0 0 0 0 0 0 0 0 0 0 0 0 0 0 0 0 0 0 0 0 0 0 0 0 0 0 0 0 0 0 0 0 0 0 0 0 0 0 0 0 0 0 0 0 0 0 0
0 0 0 0 0 0 0 0 0 0 0 0 0 0 0 0 0 0 0 0 0 0 0 0 0 0 0 0 0 0 0 0 0 0 0 0 0 0 0 0 0 0 0 0 0 0 0 0 0
0 0 0 0 0 0 0 0 0 0 0 0 0 0 0 0 0 0 0 0 0 0 0 0 0 0 0 0 0 0 0 0 0 0 0 0 0 0 0 0 0 0 0 0 0 0 0 0 0
0 0 0 0 0 0 0 0 0 0 0 0 0 0 0 0 0 0 0 0 0 0 0 0 0 0 0 0 0 0 0 0 0 0 0 0 0 0 0 0 0 0 0 0 0 0 0 0 0
0 0 0 0 0 0 0 0 0 0 0 0 0 0 0 0 0 0 0 0 0 0 0 0 0 0 0 0 0 0 0 0 0 0 0 0 0 0 0 0 0 0 0 0 0 0 0 0 0
0 0 0 0 0 0 0 0 0 0 0 0 0 0 0 0 0 0 0 0 0 0 0 0 0 0 0 0 0 0 0 0 0 0 0 0 0 0 0 0 0 0 0 0 0 0 0 0 0
Wind_Speed
6 3 2 4 7 4 4 6 3 2 2 1 2 5 6 5 5 4 3 8 11 9 7 7 9 10 11 11 11 11 12 13 13 14 13 13 11 11 11 11 11 12 12 13 13 14 14 13 13
2 1 5 6 5 1 6 6 5 5 4 4 2 4 4 2 2 6 5 9 12 10 8 7 10 12 11 10 9 9 10 11 13 13 12 11 10 11 12 11 10 10 11 11 12 13 13 13 13
3 3 5 5 2 5 5 5 6 2 1 3 2 1 3 5 5 9 7 10 10 8 7 7 12 13 12 11 10 10 10 11 12 12 11 10 10 11 11 10 10 10 10 11 12 12 12 12 12
3 5 5 4 5 8 7 6 6 4 1 1 3 1 2 2 7 8 9 12 12 8 7 7 12 14 13 13 12 12 12 12 12 12 12 11 11 11 10 10 10 10 11 11 11 11 12 11 12
5 5 4 2 6 7 6 4 8 7 5 3 3 2 4 1 4 9 11 12 13 8 6 7 12 14 14 15 15 15 15 14 14 13 13 12 11 11 10 10 10 10 10 11 11 11 11 11 11
5 5 3 4 7 6 4 5 5 5 4 3 5 3 5 3 7 10 10 10 11 9 7 7 11 12 14 15 16 15 15 15 14 14 13 13 13 12 10 10 10 9 9 10 11 11 11 12 13
5 4 3 4 5 6 4 6 6 6 5 7 7 5 4 4 7 9 9 9 9 9 8 6 6 9 12 13 14 14 15 14 14 13 13 13 13 11 9 9 9 9 10 11 11 12 13 13 13
5 4 2 4 4 6 2 3 3 7 7 4 8 8 7 8 8 7 7 7 8 8 9 8 6 6 6 7 12 13 14 14 14 14 13 13 13 11 10 8 9 9 11 11 12 12 12 12 13
4 4 4 6 4 5 2 3 3 1 2 3 6 6 3 9 12 9 6 6 8 10 10 10 9 7 6 5 8 11 13 14 13 12 12 10 6 6 6 7 9 10 10 11 11 11 11 11 11
4 4 9 7 4 3 3 5 5 3 4 5 6 3 4 9 15 14 14 14 15 16 13 11 11 10 8 7 5 5 5 6 6 4 5 5 4 4 5 9 10 10 10 10 10 11 10 8 4
6 8 7 6 4 3 4 5 4 5 10 12 11 9 7 9 14 17 18 17 20 15 13 13 13 11 9 6 5 4 3 4 5 6 6 5 4 4 4 3 5 5 7 5 5 5 3 4 4
6 9 8 7 4 4 5 5 5 10 18 11 12 8 10 14 19 20 21 19 14 10 15 14 13 12 10 8 6 5 4 4 4 5 6 4 3 4 4 3 3 3 2 2 2 2 4 5 5
7 8 7 7 7 6 6 9 7 14 17 8 8 7 14 18 20 20 18 14 12 13 15 15 15 15 12 9 7 7 6 5 5 5 5 6 5 5 5 4 3 3 2 2 2 2 4 4 5
5 5 7 8 9 6 9 14 5 21 10 9 11 13 13 18 21 17 16 17 17 19 17 15 16 15 14 11 9 7 6 6 5 5 6 7 6 6 5 5 4 3 2 2 2 3 3 3 4
2 6 12 8 7 6 4 12 13 24 9 10 13 13 13 17 18 22 23 22 21 19 17 17 17 15 15 13 11 8 7 7 6 5 6 7 6 7 6 5 4 3 3 3 2 3 3 3 4
2 3 9 9 4 4 9 16 19 11 7 14 15 14 14 15 18 22 20 18 17 15 17 19 17 17 17 14 11 8 8 8 6 6 6 7 7 7 6 5 4 4 3 2 2 2 3 3 3
2 6 10 13 6 7 10 15 17 5 8 14 15 14 14 16 18 19 17 17 17 19 19 20 19 20 17 13 10 9 8 8 7 7 6 7 7 7 6 5 4 4 3 2 2 3 2 2 3
12 9 8 12 7 6 9 16 18 9 8 12 13 13 13 18 24 17 14 17 17 17 18 18 18 17 15 11 8 6 8 7 7 7 7 7 6 7 6 5 6 5 4 3 2 3 2 1 2
10 11 13 15 8 7 14 20 21 19 13 14 17 18 20 23 25 11 11 14 14 14 15 18 18 18 16 13 12 11 11 9 7 7 9 9 8 8 7 6 5 5 4 4 4 3 3 2 2
11 14 17 13 11 9 13 21 16 18 20 17 18 20 22 25 22 9 9 10 15 18 18 19 20 21 20 15 11 6 6 5 5 6 8 9 9 8 8 8 6 5 4 4 3 3 3 2 3
12 14 20 15 8 7 11 15 11 13 16 16 16 19 24 27 24 14 9 11 13 17 20 19 21 19 17 13 9 7 5 4 4 7 8 8 9 8 7 8 6 6 5 5 4 4 5 4 2
21 13 15 12 8 8 5 20 10 11 13 15 19 20 24 25 18 15 10 10 14 16 15 16 17 17 14 15 15 17 13 12 12 8 8 8 9 9 8 8 7 7 5 6 5 4 4 5 3
19 6 5 5 6 7 5 14 12 7 10 15 20 21 22 22 15 13 11 11 10 11 13 14 15 15 14 16 16 16 12 8 5 6 9 8 7 8 8 8 7 7 6 6 6 5 5 4 4
7 2 3 3 1 12 10 13 18 11 13 13 18 19 20 22 14 9 6 7 8 9 10 12 15 15 15 17 17 18 16 12 10 10 11 9 6 7 9 8 7 7 6 6 6 5 6 5 5
5 5 3 5 3 15 9 12 12 10 12 16 17 18 21 18 9 6 9 10 12 14 14 13 15 15 17 19 20 21 18 17 16 13 13 12 9 8 12 9 8 7 6 6 6 5 6 7 6
8 11 12 10 11 13 4 14 10 9 10 11 14 15 14 9 5 8 10 11 13 14 15 15 17 15 17 19 19 16 14 13 12 13 12 14 11 10 12 10 10 9 8 8 7 5 5 5 6
6 9 9 7 7 11 12 11 10 7 9 11 13 14 15 11 7 6 6 8 10 13 16 17 18 17 18 18 15 14 15 15 13 11 10 9 7 8 11 11 12 11 10 10 9 6 6 6 5
8 6 4 7 8 10 14 14 9 6 8 8 9 10 11 8 6 5 6 8 9 11 13 13 16 19 16 14 14 12 13 13 10 10 12 11 10 10 13 12 12 11 11 10 8 6 6 7 6
6 6 8 6 6 7 11 16 7 6 7 11 12 11 9 7 7 8 8 8 8 8 10 12 13 13 13 16 15 14 13 12 11 11 13 13 12 14 15 15 14 13 12 11 9 8 8 8 7
9 13 12 10 11 9 8 17 18 12 15 15 15 11 9 8 7 8 9 7 8 11 12 15 15 16 18 16 15 16 14 14 15 15 14 15 15 15 15 15 15 14 13 11 11 10 9 9 9
Wind_Direction
320 339 55 52 47 38 277 261 219 194 159 158 140 139 149 161 168 194 166 156 147 147 145 149 154 148 138 131 130 127 124 122 112 103 96 91 86 84 77 62 50 47 48 48 46 43 36 27 24
314 24 56 57 77 319 269 251 209 202 178 157 128 118 122 192 153 141 158 169 151 146 144 152 161 160 149 137 134 129 117 111 106 101 96 96 96 89 82 73 60 52 49 48 45 39 33 24 18
312 50 81 74 133 210 253 235 214 228 205 160 140 163 179 192 179 175 182 156 142 145 148 158 163 162 154 147 142 129 118 111 105 105 109 108 101 94 90 84 73 61 54 51 44 36 30 24 19
63 49 57 77 243 235 239 237 189 170 223 161 145 225 254 197 181 182 158 145 141 148 149 159 161 158 154 152 150 145 139 128 122 122 121 114 104 97 91 86 79 69 62 55 49 41 32 24 19
61 74 62 310 258 251 248 212 165 176 196 206 171 220 255 235 150 147 151 148 147 147 147 161 161 159 157 154 152 151 145 138 136 132 127 120 111 102 94 89 81 75 70 63 56 48 40 34 29
55 65 99 250 258 267 245 178 177 190 208 204 180 212 249 154 149 157 157 149 149 148 147 159 163 162 161 158 155 153 149 146 144 140 135 128 121 112 103 97 89 86 82 73 65 57 51 45 40
103 109 200 239 268 281 243 168 185 196 206 208 183 196 240 199 191 161 154 146 151 152 149 152 160 165 165 161 159 157 153 151 148 144 135 127 121 114 110 105 99 96 89 78 71 65 55 47 42
127 110 254 256 255 272 259 191 214 185 217 211 166 192 234 206 176 155 143 147 158 164 163 161 160 157 156 160 162 157 155 154 153 145 138 134 129 121 115 103 96 88 83 76 72 65 56 46 39
96 90 233 235 232 270 253 245 260 223 213 207 215 213 242 139 143 147 154 168 180 184 181 172 168 165 159 160 165 158 157 159 156 153 152 134 126 121 109 98 91 83 78 75 71 66 60 54 42
106 177 228 225 220 236 232 230 241 242 247 246 258 247 100 139 162 176 185 190 193 195 189 181 176 173 167 170 161 159 155 156 151 153 150 140 139 139 118 96 87 76 68 65 66 62 53 50 38
176 206 237 253 252 240 244 233 216 203 241 222 222 223 170 173 185 194 200 200 200 194 187 184 180 176 173 171 166 170 162 158 161 161 154 147 134 123 106 93 79 68 60 45 45 43 36 36 33
206 236 230 249 262 257 249 243 230 212 234 216 217 210 174 191 199 204 207 210 201 188 195 186 180 177 178 170 175 175 168 166 167 167 158 146 136 129 125 115 111 97 88 73 45 42 39 34 26
227 251 243 244 264 261 260 249 248 255 249 239 238 224 196 204 211 215 216 214 201 201 196 189 182 179 177 173 179 179 176 173 168 165 166 159 152 148 140 131 124 124 126 117 85 58 49 37 24
244 261 277 270 264 253 242 258 240 264 260 246 239 234 216 216 217 217 218 215 206 205 199 189 187 182 176 178 180 179 175 169 164 166 172 168 159 152 144 136 136 144 151 144 115 84 63 40 19
317 308 298 263 239 250 209 271 234 249 265 266 257 249 237 227 223 220 219 216 209 204 195 189 188 182 180 179 179 174 171 167 169 169 169 168 161 154 145 143 150 160 158 141 122 94 77 53 23
334 280 278 273 204 204 157 253 256 244 237 258 263 260 254 244 230 229 224 218 209 198 193 192 187 184 184 180 175 171 168 168 171 167 168 169 163 156 147 148 156 163 151 130 104 67 59 39 13
259 234 246 280 229 187 189 242 268 223 215 251 262 263 262 262 253 237 223 215 207 200 194 190 187 183 182 173 168 165 163 168 171 170 171 170 163 157 148 151 157 156 139 120 103 74 70 28 354
229 224 237 256 254 189 219 244 265 266 228 249 263 267 264 262 258 244 216 213 208 203 195 189 184 177 169 161 153 154 162 171 172 173 172 167 165 159 151 154 161 155 143 136 125 113 84 47 340
228 235 242 250 247 205 232 246 256 269 265 257 260 262 261 262 263 240 209 206 202 196 189 183 178 173 169 172 173 174 181 176 175 176 173 172 170 166 161 158 157 160 156 154 147 127 102 59 8
245 253 259 267 258 241 251 256 254 255 259 255 256 261 263 262 266 240 216 205 198 194 187 181 180 176 179 181 177 166 150 160 171 171 175 176 175 173 170 163 161 164 149 147 158 152 127 83 40
235 232 250 256 292 296 292 277 249 250 253 260 258 256 260 261 267 262 221 209 196 191 185 183 181 178 177 163 146 129 116 110 164 185 183 184 178 175 170 167 159 161 153 160 178 177 144 132 83
254 230 245 260 272 265 241 286 253 240 248 253 256 256 259 261 257 255 227 203 197 193 182 179 177 175 170 163 167 170 183 190 190 179 176 177 178 177 172 167 164 163 159 166 180 193 150 132 132
242 250 243 253 251 274 189 268 269 194 240 248 248 251 257 262 249 239 219 203 191 175 172 173 170 171 168 171 175 183 193 189 152 149 168 177 182 179 173 169 168 169 164 169 176 178 151 131 139
227 99 360 33 13 272 188 235 275 169 217 236 245 248 252 259 255 232 203 169 162 159 164 169 171 174 172 175 180 190 192 178 168 175 179 181 179 182 180 173 173 174 169 171 171 177 154 134 133
150 156 316 315 277 260 177 226 263 212 221 224 236 246 249 255 251 204 178 173 170 170 172 174 178 181 181 184 189 195 194 188 189 184 184 182 181 188 187 175 174 175 174 165 159 166 158 145 148
199 178 196 226 248 271 204 240 256 249 263 274 272 268 274 286 244 211 194 183 180 179 177 179 185 188 189 194 198 196 192 193 196 188 188 191 191 185 179 173 169 168 165 162 160 165 170 151 150
176 211 213 216 265 280 264 266 297 287 288 280 279 283 284 283 259 237 203 185 180 181 187 189 189 192 196 199 196 196 196 197 195 185 183 188 179 168 169 171 170 169 167 166 165 172 172 155 150
186 184 144 177 208 245 270 271 262 256 266 296 316 313 302 290 257 227 209 203 196 193 193 196 199 199 197 195 197 199 201 202 189 175 184 181 172 167 168 172 170 169 168 168 166 167 170 154 142
201 203 206 207 198 216 261 272 225 230 271 311 315 308 289 263 240 229 226 215 202 196 197 205 209 202 195 197 197 195 195 191 184 185 184 178 173 170 174 173 170 172 172 170 169 173 172 154 141
229 221 205 214 229 217 233 262 266 258 278 285 283 279 272 254 238 232 232 224 211 209 208 210 211 211 210 201 194 197 191 185 190 192 184 176 175 173 174 173 172 174 174 173 173 174 173 159 156